This is the latest recevied weather packets stored in our database for station/object OK1FET-14. If no packets are shown the sender has not sent any weather packets the latest 10 day(s).
| Time | Temp. | Humidity | Pressure | Rain* | Wind** | Luminosity | Snow |
|---|---|---|---|---|---|---|---|
| 1787911916 | 26.67° C | 51% | 1014.7 hPa | - | - | - | - |
| 1787911915 | 26.67° C | 51% | 1014.7 hPa | - | - | - | - |
| 1787911915 | 26.67° C | 51% | 1014.7 hPa | - | - | - | - |
| 1787911634 | 26.11° C | 51% | 1014.7 hPa | - | - | - | - |
| 1787911634 | 26.11° C | 51% | 1014.7 hPa | - | - | - | - |
| 1787911634 | 26.11° C | 51% | 1014.7 hPa | - | - | - | - |
| 1787911352 | 26.67° C | 54% | 1014.4 hPa | - | - | - | - |
| 1787911352 | 26.67° C | 54% | 1014.4 hPa | - | - | - | - |
| 1787911352 | 26.67° C | 54% | 1014.4 hPa | - | - | - | - |
| 1787911071 | 24.44° C | 56% | 1014.8 hPa | - | - | - | - |
| 1787911071 | 24.44° C | 56% | 1014.8 hPa | - | - | - | - |
| 1787910789 | 25° C | 55% | 1015 hPa | - | - | - | - |
| 1787910789 | 25° C | 55% | 1015 hPa | - | - | - | - |
| 1787910789 | 25° C | 55% | 1015 hPa | - | - | - | - |
| 1787910508 | 24.44° C | 56% | 1014.6 hPa | - | - | - | - |
| 1787910508 | 24.44° C | 56% | 1014.6 hPa | - | - | - | - |
| 1787910508 | 24.44° C | 56% | 1014.6 hPa | - | - | - | - |
| 1787910226 | 24.44° C | 56% | 1013.9 hPa | - | - | - | - |
| 1787910226 | 24.44° C | 56% | 1013.9 hPa | - | - | - | - |
| 1787909945 | 24.44° C | 58% | 1013.7 hPa | - | - | - | - |
| 1787909945 | 24.44° C | 58% | 1013.7 hPa | - | - | - | - |
| 1787909945 | 24.44° C | 58% | 1013.7 hPa | - | - | - | - |
| 1787909664 | 23.89° C | 58% | 1013.7 hPa | - | - | - | - |
| 1787909664 | 23.89° C | 58% | 1013.7 hPa | - | - | - | - |
| 1787909664 | 23.89° C | 58% | 1013.7 hPa | - | - | - | - |
* Rain since midnight (hover to see other rain measurements)
** Current wind speed in m/s (hover to see current wind gust speed)